Torna al catalogo

STARLINK-38215

AttivoComunicazioniSSO
NORAD 100305·PAYLOAD·🇺🇸 United States

Lanciato Aug 12, 2026 da Vandenberg Space Force Base

Loading…

Prossimi Passaggi (prossime 24 ore)

TLE

AggiornatoSource: Space-Track

Epoca: Sep 14, 2026, 22:24 UTC

1 A0305U 26184E   26257.93378734  .00016888  00000-0  52417-3 0  9998
2 A0305  97.2830 123.0760 0001675  99.7787 260.3645 15.33450540  6501

Traccia STARLINK-38215 in tempo reale con AllMySat

Download on the App Store